OSCAR 7 (AO-7) 1 07530U 74089B 26037.99182642 -.00000047 00000+0 -27752-5 0 9992 2 07530 101.9972 49.8523 0012258 20.9760 36.4298 12.53695622344205 PHASE 3B (AO-10) 1 14129U 83058B 26036.76544083 .00000196 00000+0 00000+0 0 9999 2 14129 25.9610 241.7283 6056240 79.1046 339.8337 2.05870291292787 UOSAT 2 (UO-11) 1 14781U 84021B 26038.12700472 .00002634 00000+0 27612-3 0 9993 2 14781 97.7900 5.3147 0006047 250.9785 109.0778 14.90391525237753 LUSAT (LO-19) 1 20442U 90005G 26037.99163419 .00000209 00000+0 91526-4 0 9993 2 20442 98.8950 56.1487 0010841 224.2118 135.8201 14.34074785883730 EYESAT A (AO-27) 1 22825U 93061C 26038.14957770 .00000173 00000+0 82887-4 0 9994 2 22825 98.7048 105.5263 0009357 119.1133 241.0987 14.30902647688405 ITAMSAT (IO-26) 1 22826U 93061D 26038.16757285 .00000201 00000+0 92806-4 0 9990 2 22826 98.6996 105.4489 0010007 104.6222 255.6071 14.31325887688713 RADIO ROSTO (RS15) 1 23439U 94085A 26038.18648438 .00000010 00000+0 14863-2 0 9992 2 23439 64.8164 153.4642 0151561 27.8356 333.0576 11.27583611281246 JAS-2 (FO-29) 1 24278U 96046B 26038.18652100 -.00000016 00000+0 17178-4 0 9995 2 24278 98.5421 264.7265 0350833 73.7757 290.1680 13.53266643455586 TECHSAT 1B (GO-32) 1 25397U 98043D 26037.90281677 .00000136 00000+0 79038-4 0 9998 2 25397 98.9987 27.4306 0000773 178.6118 181.5062 14.24397158432780 ISS (ZARYA) 1 25544U 98067A 26037.85745963 .00012189 00000+0 23308-3 0 9994 2 25544 51.6318 224.7731 0011112 72.2083 288.0117 15.48447561551553 PCSAT (NO-44) 1 26931U 01043C 26037.96494660 .00000247 00000+0 12331-3 0 9996 2 26931 67.0487 221.0723 0007041 266.3534 93.6763 14.31894232271802 SAUDISAT 1C (SO-50) 1 27607U 02058C 26037.72656845 .00002556 00000+0 31953-3 0 9999 2 27607 64.5528 172.5215 0074441 286.2813 73.0114 14.82657531245118 CUTE-1 (CO-55) 1 27844U 03031E 26038.00414118 .00000481 00000+0 22742-3 0 9992 2 27844 98.6775 48.1865 0009237 197.5390 162.5471 14.24239877173145 CUBESAT XI-IV (CO-57) 1 27848U 03031J 26037.99814235 .00000403 00000+0 19627-3 0 9999 2 27848 98.6804 47.9978 0008794 216.6284 143.4294 14.23538936172851 MOZHAETS 4 (RS22) 1 27939U 03042A 26038.23375605 .00001922 00000+0 30614-3 0 9999 2 27939 98.3402 218.9540 0010737 326.1405 142.3026 14.73165151196419 CUBESAT XI-V 1 28895U 05043F 26037.99604190 .00002872 00000+0 46336-3 0 9993 2 28895 98.2780 191.0538 0013234 257.6507 102.3219 14.72179849 82594 CUTE-1.7+APD II (CO-65) 1 32785U 08021C 26038.12680383 .00007870 00000+0 51601-3 0 9993 2 32785 97.8168 17.0740 0011265 107.1553 253.0908 15.07919215965582 SEEDS II (CO-66) 1 32791U 08021J 26037.95330128 .00025492 00000+0 94170-3 0 9997 2 32791 97.7494 30.1478 0005381 68.0773 292.1037 15.27712917967373 YUBILEINY (RS30) 1 32953U 08025A 26038.12600909 .00000011 00000+0 64723-5 0 9991 2 32953 82.4987 76.3468 0018539 232.9871 126.9512 12.43174879803535 KKS-1 (KISEKI) 1 33499U 09002H 26038.09772263 .00002650 00000+0 33513-3 0 9994 2 33499 98.1186 318.5313 0008011 3.1709 356.9553 14.82705477916914 SWISSCUBE 1 35932U 09051B 26038.16303156 .00001836 00000+0 37463-3 0 9994 2 35932 98.4127 303.7606 0005552 257.1862 102.8718 14.62170900870156 BEESAT-1 1 35933U 09051C 26038.17522441 .00001542 00000+0 32106-3 0 9999 2 35933 98.4057 303.6742 0004052 274.8438 85.2300 14.61458243870191 ITUPSAT1 1 35935U 09051E 26038.12162968 .00001421 00000+0 30485-3 0 9994 2 35935 98.4146 302.9446 0006315 286.5358 73.5147 14.60199012869754 XIWANG-1 (HOPE-1) 1 36122U 09072B 26038.13324160 .00000210 00000+0 66523-3 0 9998 2 36122 100.3870 354.1431 0007490 166.2654 193.8664 13.16436207775892 O/OREOS (USA 219) 1 37224U 10062C 26038.04809089 .00004197 00000+0 40742-3 0 9994 2 37224 71.9721 14.9857 0016640 308.9497 51.0190 14.93085578 97213 JUGNU 1 37839U 11058B 26037.24039310 .00000549 00000+0 14726-3 0 9995 2 37839 19.9623 23.9494 0018781 70.6819 52.3180 14.13726855740472 SRMSAT 1 37841U 11058D 26037.29582517 .00000512 00000+0 13390-3 0 9991 2 37841 19.9712 131.7097 0011564 203.5607 189.1597 14.11535751739307 STRAND-1 1 39090U 13009E 26038.06825293 .00000531 00000+0 19319-3 0 9992 2 39090 98.3856 221.5259 0007591 258.6180 101.4154 14.37066958678376 ZACUBE-1 (TSHEPISOSAT) 1 39417U 13066B 26037.84709542 .00009144 00000+0 72817-3 0 9992 2 39417 97.8176 359.5257 0040880 326.5593 33.3049 14.99939853661187 GOMX-1 1 39430U 13066Q 26038.17384020 .00002639 00000+0 40305-3 0 9993 2 39430 97.6574 246.7799 0130495 134.5784 226.6163 14.68964663650827 CUBEBUG-2 (LO-74) 1 39440U 13066AA 26037.79615628 .00006647 00000+0 62887-3 0 9994 2 39440 97.8775 346.4411 0060814 99.2482 261.5622 14.92581267657536 FUNCUBE-1 (AO-73) 1 39444U 13066AE 26038.17612027 .00013058 00000+0 85589-3 0 9999 2 39444 97.8151 7.2229 0035839 287.0470 72.6832 15.07302567660067 UWE-3 1 39446U 13066AG 26036.82439138 .00010655 00000+0 93494-3 0 9995 2 39446 97.8559 352.2552 0051670 39.3948 321.1012 14.95763546657930 UNISAT-6 1 40012U 14033C 26037.99926130 .00005259 00000+0 57622-3 0 9990 2 40012 97.7674 193.2148 0046528 136.6885 223.8004 14.87381634626805 DUCHIFAT-1 1 40021U 14033M 26038.18767144 .00058869 00000+0 11894-2 0 9995 2 40021 98.0698 81.1054 0006209 171.4869 188.6485 15.46271792635559 QB50P1 1 40025U 14033R 26037.95519644 .00014026 00000+0 73643-3 0 9991 2 40025 98.1000 40.1836 0007822 321.5100 38.5572 15.15825625633286 LILACSAT-2 1 40908U 15049K 26038.18648188 .00022249 00000+0 44344-3 0 9993 2 40908 97.4855 70.3723 0007870 18.9791 341.1750 15.46868548575621 FOX-1A (AO-85) 1 40967U 15058D 26038.12518014 .00004304 00000+0 39296-3 0 9998 2 40967 64.7771 322.9163 0130332 108.0145 253.5220 14.90109357 94187 CAS-2T & KS-1Q 1 41847U 16066G 26038.15732468 .00002580 00000+0 36984-3 0 9995 2 41847 98.3943 115.3361 0343393 163.8251 197.4236 14.44358602486022 RADFXSAT (FOX-1B) 1 43017U 17073E 26038.12304956 .00012350 00000+0 56222-3 0 9992 2 43017 97.4896 268.0715 0158803 57.1252 304.5148 15.10178991445747 DIWATA-2B 1 43678U 18084H 26038.16757539 .00001600 00000+0 13449-3 0 9991 2 43678 98.1065 228.9502 0008460 222.4249 137.6320 14.99808660396720 ES'HAIL 2 1 43700U 18090A 26038.13020756 .00000147 00000+0 00000+0 0 9995 2 43700 0.0153 116.2895 0002376 247.4937 206.0836 1.00271441 26374 FOX-1CLIFF (AO-95) 1 43770U 18099N 26038.11132889 .00016255 00000+0 68072-3 0 9994 2 43770 97.4570 99.0108 0010547 87.4683 272.7761 15.23573092393391 ITASAT 1 43786U 18099AE 26038.11063132 .00009698 00000+0 49043-3 0 9995 2 43786 97.4229 92.2601 0014539 87.1333 273.1564 15.17154934393171 JY1SAT (JO-97) 1 43803U 18099AX 26038.13749830 .00021749 00000+0 77017-3 0 9996 2 43803 97.4318 100.8305 0006419 24.1846 335.9694 15.29125667393721 UWE-4 1 43880U 18111E 26037.98368663 .00036639 00000+0 97944-3 0 9994 2 43880 97.5860 321.2104 0011894 76.3835 283.8733 15.37913928390710 TIANYAN 01 1 44881U 19093C 26038.18864029 .00001125 00000+0 13379-3 0 9998 2 44881 97.7669 113.5401 0014207 149.3283 210.8766 14.86269389332105 RS-44 & BREEZE-KM R/B 1 44909U 19096E 26038.14831703 .00000010 00000+0 -14272-4 0 9998 2 44909 82.5173 66.1194 0218675 88.4565 274.1571 12.79746880285718 SALSAT 1 46495U 20068K 26038.02223739 .00011294 00000+0 42137-3 0 9997 2 46495 97.8837 33.3954 0011645 46.9337 313.2873 15.27533154295478 XW-3 (CAS-9) 1 50466U 21131B 26038.23456635 .00000906 00000+0 29438-3 0 9995 2 50466 98.4993 131.3611 0005082 122.1678 238.0004 14.41210011216396 GREENCUBE (IO-117) 1 53109U 22080E 26036.82714451 -.00000003 00000+0 00000+0 0 9991 2 53109 70.1644 343.9250 0009171 317.3784 42.6164 6.42583143 83627 UMKA 1 (RS40S) 1 57172U 23091G 26038.14497148 .00008463 00000+0 40532-3 0 9991 2 57172 97.5241 97.3745 0012557 207.4001 152.6572 15.19126640144250 CUBESX-HSE 3 (RS42S) 1 57178U 23091N 26038.17969877 .00020331 00000+0 75249-3 0 9994 2 57178 97.5271 102.3524 0011521 186.4099 173.6994 15.27644361144552 MONITOR-3 (RS58S) 1 57180U 23091Q 26038.20782944 .00015500 00000+0 62299-3 0 9992 2 57180 97.5264 100.8571 0012223 191.6625 168.4331 15.24953414144461 MONITOR-4 (RS57S) 1 57182U 23091S 26038.19460980 .00017697 00000+0 70897-3 0 9997 2 57182 97.5257 100.8066 0012216 192.2223 167.8720 15.25033311144468 MONITOR-2 (RS39S) 1 57184U 23091U 26038.21319280 .00007705 00000+0 38679-3 0 9999 2 57184 97.5267 97.3381 0011021 197.7526 162.3324 15.17529624144233 SVYATOBOR 1 (RS60S) 1 57187U 23091X 26038.17790693 .00015083 00000+0 62171-3 0 9990 2 57187 97.5271 101.3928 0009866 181.9510 178.1691 15.24135226144495 VIZARD-METEO (RS38S) 1 57189U 23091Z 26038.19806822 .00024329 00000+0 79778-3 0 9990 2 57189 97.5259 105.4036 0008255 166.6607 193.4854 15.31586645144760 NANOZOND 1 (RS49S) 1 57190U 23091AA 26038.19632234 .00160193 00000+0 16324-2 0 9993 2 57190 97.5155 116.2449 0003278 164.3382 195.7978 15.64588473145490 POLYTECH-UNIVERSE 3 (R*) 1 57191U 23091AB 26038.19085922 .00008296 00000+0 41354-3 0 9997 2 57191 97.5239 96.8245 0015095 217.4920 142.5262 15.17704890144226 UTMN 2 (RS27S) 1 57203U 23091AP 26038.20579346 .00019869 00000+0 71616-3 0 9993 2 57203 97.5260 103.8513 0008884 171.6805 188.4583 15.28548190144666 KUZGTU 1 (RS47S) 1 57217U 23091AV 26038.19922054 .00018620 00000+0 71180-3 0 9994 2 57217 97.5246 101.5510 0011597 189.4271 170.6751 15.26591795144528 SONATE-2 1 59112U 24043Q 26037.93139167 .00041354 00000+0 76291-3 0 9992 2 59112 97.5359 181.4498 0008419 325.6881 34.3825 15.48969926107662 MESAT1 1 60209U 24125G 26038.07733799 .00049837 00000+0 85728-3 0 9998 2 60209 97.2484 253.6540 0013097 344.6302 15.4551 15.50861288 89327 OOV-CUBE (TUBSAT-30) 1 60240U 24128F 26038.14161145 .00004062 00000+0 31356-3 0 9993 2 60240 61.9965 318.8030 0056611 106.0184 254.7152 15.02029886 86575 COLIBRI-S (RS67S) 1 61746U 24199M 26038.19834922 .00030364 00000+0 71115-3 0 9999 2 61746 97.3203 271.2323 0010967 40.3367 319.8692 15.41995077117348 HORS 3 (RS81S) 1 61753U 24199U 26038.18579375 .00041954 00000+0 84883-3 0 9997 2 61753 97.3172 272.1263 0009369 45.7329 314.4688 15.46285093117414 HORS 4 (RS82S) 1 61754U 24199V 26038.17554123 .00046564 00000+0 86638-3 0 9993 2 61754 97.3146 272.7032 0009319 44.8588 315.3415 15.48689333117457 HORIZON (RS59S) 1 61757U 24199Y 26038.20795666 .00125902 00000+0 13695-2 0 9995 2 61757 97.3135 275.8175 0007624 31.3350 328.8362 15.63004558117654 ARCTICSAT 1 (RS74S) 1 61762U 24199AD 26038.21513933 .00104207 00000+0 12705-2 0 9993 2 61762 97.3150 275.5072 0007670 28.2041 331.9630 15.60108185117632 SIT-2086 1 61764U 24199AF 26038.18713546 .00031925 00000+0 65434-3 0 9997 2 61764 97.3168 272.8834 0008613 30.2001 329.9743 15.45969838114302 RUZAEVKA 390 (RS44S) 1 61766U 24199AH 26036.28668939 .00313717 00000+0 17151-2 0 9997 2 61766 97.3049 276.2746 0005522 43.7248 316.4455 15.78991128114371 HYPERVIEW 1G (RS66S) 1 61772U 24199AP 26038.20697147 .00077227 00000+0 11826-2 0 9997 2 61772 97.3140 273.5681 0010787 41.1549 319.0516 15.54025458114367 ALTAIR (RS65S) 1 61779U 24199AW 26038.18521532 .00018112 00000+0 54659-3 0 9995 2 61779 97.3219 268.4806 0015253 56.6984 303.5718 15.34214751117167 ASRTU-1 (AO-123) 1 61781U 24199AY 26038.21273073 .00013838 00000+0 42912-3 0 9995 2 61781 97.3197 268.0851 0015795 57.7359 302.5412 15.33402503113990 TUSUR GO (RS78S) 1 61782U 24199AZ 26038.16052743 .00132538 00000+0 14461-2 0 9995 2 61782 97.3091 274.7893 0009164 41.4505 318.7447 15.62890007114440 SAMSAT-IONOSPHERE (RS7*) 1 61784U 24199BB 26038.16478159 .00044047 00000+0 86479-3 0 9996 2 61784 97.3164 271.8568 0012415 46.3453 313.8825 15.47112642117397 RTU MIREA 1 (RS51S) 1 61785U 24199BC 26038.19715459 .00051878 00000+0 96230-3 0 9993 2 61785 97.3158 272.2557 0011986 44.3093 315.9115 15.48720713114278 TEVEL2-4 1 63213U 25052D 26037.69832003 .00023931 00000+0 83540-3 0 9998 2 63213 97.4058 294.2254 0002171 160.8404 199.2918 15.29589533 50130 TEVEL2-5 1 63214U 25052E 26038.16496873 .00023979 00000+0 83920-3 0 9997 2 63214 97.4061 294.6685 0002172 161.7554 198.3764 15.29506293 50203 TEVEL2-6 1 63215U 25052F 26038.17395116 .00024782 00000+0 86825-3 0 9997 2 63215 97.4061 294.6639 0002228 164.8055 195.3253 15.29463344 50204 TEVEL2-1 1 63217U 25052H 26038.16420675 .00023768 00000+0 84284-3 0 9997 2 63217 97.4036 294.4157 0001712 181.3624 178.7612 15.29078083 50198 TEVEL2-3 1 63218U 25052J 26037.70435823 .00023404 00000+0 82974-3 0 9999 2 63218 97.4035 293.9677 0001594 181.8488 178.2747 15.29088607 50120 TEVEL2-2 1 63219U 25052K 26037.64136559 .00023544 00000+0 83549-3 0 9991 2 63219 97.4041 293.8962 0001545 183.7689 176.3539 15.29056820 50113 TEVEL2-9 1 63237U 25052AD 26037.59591267 .00022572 00000+0 84168-3 0 9994 2 63237 97.4097 293.4737 0004643 239.9340 120.1439 15.27427447 50065 TEVEL2-7 1 63238U 25052AE 26037.68158857 .00021506 00000+0 80673-3 0 9992 2 63238 97.4096 293.5200 0004802 236.4013 123.6768 15.27239296 50074 TEVEL2-8 1 63239U 25052AF 26038.14678823 .00021385 00000+0 80239-3 0 9998 2 63239 97.4099 293.9629 0004850 236.0393 124.0385 15.27232267 50146 HADES-ICM 1 63492U 25052BN 26036.66560114 .00141387 00000+0 25651-2 0 9998 2 63492 97.4003 296.1435 0003805 209.7437 150.3598 15.49070261 50176 INNOSAT 16 (RS92S7) 1 64878U 25155C 26037.92088120 .00010103 00000+0 42359-3 0 9999 2 64878 97.4416 5.7516 0008795 288.3653 71.6627 15.23668805 60823 GEOSCAN 6 (RS92S6) 1 64879U 25155D 26037.92678211 .00016025 00000+0 60416-3 0 9999 2 64879 97.4417 6.3721 0005810 282.6788 77.3801 15.27130754 60863 GEOSCAN 1 (RS92S1) 1 64880U 25155E 26037.97048606 .00015948 00000+0 59463-3 0 9998 2 64880 97.4417 6.4717 0005671 283.1036 76.9570 15.27499615 60871 239ALFEROV (RS61S) 1 64881U 25155F 26037.95877100 .00020528 00000+0 73514-3 0 9999 2 64881 97.4422 6.6661 0005164 283.5069 76.5595 15.28777160 60884 GEOSCAN 2 (RS92S2) 1 64890U 25155Q 26038.18544593 .00016172 00000+0 59733-3 0 9999 2 64890 97.4415 6.7832 0004989 262.7233 97.3439 15.27810903 60917 GEOSCAN 5 (RS92S5) 1 64891U 25155R 26038.17198982 .00020245 00000+0 71748-3 0 9992 2 64891 97.4416 6.9649 0004064 294.6067 65.4750 15.29124937 60920 GEOSCAN 4 (RS92S4) 1 64892U 25155S 26038.16630442 .00020219 00000+0 71466-3 0 9992 2 64892 97.4418 6.9780 0004063 295.6643 64.4177 15.29213809 60928 GEOSCAN 3 (RS92S3) 1 64893U 25155T 26038.16826087 .00024214 00000+0 82647-3 0 9997 2 64893 97.4412 7.1176 0003637 300.4225 59.6656 15.30316752 60934 INNOSAT 3 (RS92S0) 1 64894U 25155U 26038.15995284 .00041691 00000+0 12508-2 0 9999 2 64894 97.4388 7.5605 0002485 313.2200 46.8835 15.34340114 60966